Location: *
(49.9853°N, 3.5569°E)
Time: 14:02:37
(UTC+00:00)

ADEOS Rocket - Pass Details

Date: 22 September 2019
Orbit: 859 x 1306 km, 98.7° (Epoch: 22 October)

Event Time Altitude Azimuth Distance (km) Brightness Sun altitude
Rises 20:28:16 0° 13° (NNE) 4,079 6.5 -25.6°
Reaches altitude 10° 20:30:49 10° 10° (N) 3,164 5.9 -25.9°
Maximum altitude 20:38:06 66° 291° (WNW) 1,380 3.9 -26.8°
Drops below altitude 10° 20:45:45 10° 212° (SSW) 3,316 5.7 -27.8°
Sets 20:48:30 0° 210° (SSW) 4,286 6.3 -28.2°
